Florien, LA

6:55 AM CST on February 24, 2017 (GMT -0600)
Fort Polk

Weather History for KAQV - November, 2012

Change the Weather History Date:

Saturday, November 3, 2012

  Actual Average (KIER) Record (KIER)
Temperature  
Mean Temperature 73 °F -  
Max Temperature 84 °F 71 °F 89 °F (2016)
Min Temperature 62 °F 48 °F 22 °F (1951)
Cooling Degree Days 8    
Growing Degree Days 23 (Base 50)    
Moisture  
Dew Point 61 °F    
Average Humidity 80    
Maximum Humidity 100    
Minimum Humidity 35    
Precipitation  
Precipitation 0.01 in - - ()
Sea Level Pressure  
Sea Level Pressure 30.05 in    
Wind  
Wind Speed 2 mph (SSW)    
Max Wind Speed 8 mph    
Max Gust Speed -    
Visibility 5 miles    
Events Fog    
Averages and records for this station are not official NWS values.
T = Trace of Precipitation, MM = Missing Value Source: NWS Daily Summary

Daily Weather History Graph

Daily Weather History Graph

Search for Another Location

Airport or City:

Trip Planner

Search our weather history database for the weather conditions in past years. The results will help you decide how hot, cold, wet, or windy it might be!

Date:

Astronomy

Nov. 03, 2012 Rise Set
Actual Time 7:31 AM CDT 6:22 PM CDT
Civil Twilight 7:05 AM CDT 6:47 PM CDT
Nautical Twilight 6:37 AM CDT 7:16 PM CDT
Astronomical Twilight 6:08 AM CDT 7:44 PM CDT
Moon 10:09 PM CDT (11/3) 11:29 AM CDT (11/3)
Length of Visible Light 11h 41m
Length of Day
10h 51m
Waning Gibbous, 80% of the Moon is Illuminated
Nov 3
Waning Gibbous
Nov 6
Last Quarter
Nov 13
New
Nov 20
First Quarter
Nov 28
Full

Hourly Weather History & Observations

Time (CDT) Temp. Heat Index Dew Point Humidity Pressure Visibility Wind Dir Wind Speed Gust Speed Precip Events Conditions
12:56 AM 64.0 °F - 62.1 °F 93% 30.02 in 9.0 mi South 3.5 mph - N/A   Clear
1:56 AM 63.0 °F - 62.1 °F 97% 30.03 in 2.0 mi Calm Calm - N/A   Partly Cloudy
2:03 AM 62.6 °F - 60.8 °F 94% 30.03 in 1.5 mi Calm Calm - N/A   Partly Cloudy
2:15 AM 62.6 °F - 62.6 °F 100% 30.03 in 2.5 mi Calm Calm - N/A   Clear
2:33 AM 62.6 °F - 62.6 °F 100% 30.03 in 1.8 mi Calm Calm - 0.01 in   Clear
2:39 AM 62.6 °F - 62.6 °F 100% 30.03 in 3.0 mi Calm Calm - 0.01 in   Clear
2:48 AM 62.6 °F - 62.6 °F 100% 30.03 in 2.0 mi Variable 3.5 mph - 0.01 in   Clear
2:56 AM 62.1 °F - 61.0 °F 96% 30.02 in 1.5 mi Calm Calm - 0.01 in   Partly Cloudy
3:15 AM 62.6 °F - 60.8 °F 94% 30.03 in 0.8 mi Calm Calm - N/A   Mist
3:56 AM 63.0 °F - 63.0 °F 100% 30.03 in 0.8 mi Calm Calm - N/A   Mist
4:56 AM 64.0 °F - 63.0 °F 96% 30.04 in 0.5 mi Calm Calm - N/A Fog Fog
5:56 AM 64.0 °F - 63.0 °F 96% 30.05 in 0.8 mi Calm Calm - N/A   Mist
6:13 AM 64.4 °F - 62.6 °F 94% 30.06 in 1.0 mi Calm Calm - N/A   Overcast
6:24 AM 64.4 °F - 62.6 °F 94% 30.07 in 0.8 mi Calm Calm - N/A   Mist
6:56 AM 63.0 °F - 63.0 °F 100% 30.07 in 0.8 mi Calm Calm - N/A   Mist
7:15 AM 62.6 °F - 62.6 °F 100% 30.08 in 1.0 mi Calm Calm - N/A   Mist
7:30 AM 62.6 °F - 62.6 °F 100% 30.08 in 0.8 mi Calm Calm - N/A   Mist
7:56 AM 63.0 °F - 63.0 °F 100% 30.09 in 0.5 mi South 3.5 mph - N/A Fog Fog
8:56 AM 64.9 °F - 64.0 °F 97% 30.11 in 0.8 mi SSW 3.5 mph - N/A   Overcast
9:13 AM 64.4 °F - 64.4 °F 100% 30.11 in 2.0 mi SSW 3.5 mph - N/A   Overcast
9:22 AM 66.2 °F - 66.2 °F 100% 30.12 in 5.0 mi SW 3.5 mph - N/A   Overcast
9:42 AM 68.0 °F - 66.2 °F 94% 30.12 in 10.0 mi Variable 3.5 mph - N/A   Scattered Clouds
9:56 AM 69.1 °F - 66.9 °F 93% 30.12 in 10.0 mi Calm Calm - N/A   Clear
10:56 AM 75.9 °F - 66.0 °F 71% 30.11 in 10.0 mi SSW 8.1 mph - N/A   Clear
11:56 AM 79.0 °F - 63.0 °F 58% 30.10 in 10.0 mi WSW 6.9 mph - N/A   Clear
12:56 PM 82.0 °F 82.7 °F 61.0 °F 49% 30.07 in 10.0 mi South 6.9 mph - N/A   Partly Cloudy
1:56 PM 82.9 °F 82.6 °F 57.9 °F 42% 30.04 in 10.0 mi Variable 3.5 mph - N/A   Partly Cloudy
2:56 PM 84.0 °F 82.6 °F 54.0 °F 35% 30.01 in 10.0 mi WSW 5.8 mph - N/A   Clear
3:56 PM 84.0 °F 82.6 °F 54.0 °F 35% 30.00 in 10.0 mi Calm Calm - N/A   Clear
4:56 PM 82.9 °F 81.8 °F 53.1 °F 36% 29.99 in 9.0 mi Calm Calm - N/A   Partly Cloudy
5:56 PM 75.0 °F - 55.9 °F 51% 30.01 in 4.0 mi Calm Calm - N/A   Haze
6:04 PM 73.4 °F - 57.2 °F 57% 30.02 in 2.0 mi Calm Calm - N/A   Haze
6:13 PM 73.4 °F - 57.2 °F 57% 30.02 in 5.0 mi Calm Calm - N/A   Haze
6:56 PM 75.0 °F - 57.9 °F 55% 30.04 in 10.0 mi South 3.5 mph - N/A   Partly Cloudy
7:56 PM 73.0 °F - 60.1 °F 64% 30.04 in 10.0 mi Variable 3.5 mph - N/A   Clear
8:56 PM 73.0 °F - 61.0 °F 66% 30.05 in 8.0 mi Variable 4.6 mph - N/A   Clear
9:56 PM 70.0 °F - 59.0 °F 68% 30.06 in 10.0 mi Variable 4.6 mph - N/A   Clear
10:56 PM 66.9 °F - 59.0 °F 76% 30.05 in 9.0 mi Calm Calm - N/A   Clear
11:56 PM 66.0 °F - 60.1 °F 81% 30.05 in 10.0 mi Calm Calm - N/A   Clear